Index of /public/pub/Notes/StatisticalMechanics/Reichl_2/Chap11

[ICO]NameLast modifiedSizeDescription

[DIR]Parent Directory  -  
[   ]11.A._Introduction.doc20-Aug-2013 10:24 44K 
[TXT]11.A._Introduction.htm20-Aug-2013 10:24 21K 
[   ]11.B.1._TheMaxwellBoltzmannDistribution.doc20-Aug-2013 10:24 70K 
[TXT]11.B.1._TheMaxwellBoltzmannDistribution.htm20-Aug-2013 10:24 33K 
[   ]11.B.2._TheMeanFreePath.doc20-Aug-2013 10:24 71K 
[TXT]11.B.2._TheMeanFreePath.htm20-Aug-2013 10:24 28K 
[   ]11.B.3._TheCollisionFrequency.doc20-Aug-2013 10:24 169K 
[TXT]11.B.3._TheCollisionFrequency.htm20-Aug-2013 10:24 72K 
[   ]11.B.4._SelfDiffusion.doc20-Aug-2013 10:24 148K 
[TXT]11.B.4._SelfDiffusion.htm20-Aug-2013 10:24 52K 
[   ]11.B.5.0._Basics.doc20-Aug-2013 10:24 81K 
[TXT]11.B.5.0._Basics.htm20-Aug-2013 10:24 30K 
[   ]11.B.5.1._SelfDiffusion.doc20-Aug-2013 10:24 49K 
[TXT]11.B.5.1._SelfDiffusion.htm20-Aug-2013 10:24 23K 
[   ]11.B.5.2._Viscosity.doc20-Aug-2013 10:24 63K 
[TXT]11.B.5.2._Viscosity.htm20-Aug-2013 10:24 27K 
[   ]11.B.5.3._HeatConduction.doc20-Aug-2013 10:24 73K 
[TXT]11.B.5.3._HeatConduction.htm20-Aug-2013 10:24 30K 
[   ]11.B.5._TheCoefficientsOfViscosityAndThermalConductivity.doc20-Aug-2013 10:24 50K 
[TXT]11.B.5._TheCoefficientsOfViscosityAndThermalConductivity.htm20-Aug-2013 10:24 23K 
[   ]11.B.6.1._RateConstant.doc20-Aug-2013 10:24 86K 
[TXT]11.B.6.1._RateConstant.htm20-Aug-2013 10:24 44K 
[   ]11.B.6.2._RateEquations.doc20-Aug-2013 10:24 93K 
[TXT]11.B.6.2._RateEquations.htm20-Aug-2013 10:24 36K 
[   ]11.B.6._TheRateOfReaction.doc20-Aug-2013 10:24 50K 
[TXT]11.B.6._TheRateOfReaction.htm20-Aug-2013 10:24 22K 
[   ]11.B._ElementaryTransportTheory.doc20-Aug-2013 10:24 50K 
[TXT]11.B._ElementaryTransportTheory.htm20-Aug-2013 10:24 23K 
[   ]11.C.1.1._DynamicsOfTheScatteringProcess.doc20-Aug-2013 10:24 50K 
[TXT]11.C.1.1._DynamicsOfTheScatteringProcess.htm20-Aug-2013 10:24 23K 
[   ]11.C.1.1a._CenterOfMassAndRelativeCoordinates.doc20-Aug-2013 10:24 119K 
[TXT]11.C.1.1a._CenterOfMassAndRelativeCoordinates.htm20-Aug-2013 10:24 47K 
[   ]11.C.1.1b._ElasticCollision.doc20-Aug-2013 10:24 143K 
[TXT]11.C.1.1b._ElasticCollision.htm20-Aug-2013 10:24 54K 
[   ]11.C.1.1c._Kinematics.doc20-Aug-2013 10:24 145K 
[TXT]11.C.1.1c._Kinematics.htm20-Aug-2013 10:24 47K 
[   ]11.C.1.2._TheScatteringCrossSection.doc20-Aug-2013 10:24 90K 
[TXT]11.C.1.2._TheScatteringCrossSection.htm20-Aug-2013 10:24 35K 
[   ]11.C.1.3._Exercise11.1.doc20-Aug-2013 10:24 79K 
[TXT]11.C.1.3._Exercise11.1.htm20-Aug-2013 10:24 29K 
[   ]11.C.1.4._Exercise11.2.doc20-Aug-2013 10:24 168K 
[TXT]11.C.1.4._Exercise11.2.htm20-Aug-2013 10:24 56K 
[   ]11.C.1._TwoBodyScattering.doc20-Aug-2013 10:24 51K 
[TXT]11.C.1._TwoBodyScattering.htm20-Aug-2013 10:24 23K 
[   ]11.C.2._DerivationOfTheBoltzmannEquation.doc20-Aug-2013 10:24 144K 
[TXT]11.C.2._DerivationOfTheBoltzmannEquation.htm20-Aug-2013 10:24 59K 
[   ]11.C.3._BoltzmannsHTheorem.doc20-Aug-2013 10:24 136K 
[TXT]11.C.3._BoltzmannsHTheorem.htm20-Aug-2013 10:24 66K 
[   ]11.C._TheBoltzmannEquation.doc20-Aug-2013 10:24 57K 
[TXT]11.C._TheBoltzmannEquation.htm20-Aug-2013 10:24 28K 
[   ]11.D.1.1._TwoComponentBoltzmannEquations.doc20-Aug-2013 10:24 74K 
[TXT]11.D.1.1._TwoComponentBoltzmannEquations.htm20-Aug-2013 10:24 35K 
[   ]11.D.1.2._Linearization.doc20-Aug-2013 10:24 100K 
[TXT]11.D.1.2._Linearization.htm20-Aug-2013 10:24 49K 
[   ]11.D.1._KineticEquationsForATwoComponentGas.doc20-Aug-2013 10:24 50K 
[TXT]11.D.1._KineticEquationsForATwoComponentGas.htm20-Aug-2013 10:24 22K 
[   ]11.D.2.1._DefinitionAndHermiticity.doc20-Aug-2013 10:24 100K 
[TXT]11.D.2.1._DefinitionAndHermiticity.htm20-Aug-2013 10:24 49K 
[   ]11.D.2.2._NonPositiveSpectrum.doc20-Aug-2013 10:24 89K 
[TXT]11.D.2.2._NonPositiveSpectrum.htm20-Aug-2013 10:24 38K 
[   ]11.D.2.3._SpatiallyHomogeneousSystem.doc20-Aug-2013 10:24 57K 
[TXT]11.D.2.3._SpatiallyHomogeneousSystem.htm20-Aug-2013 10:24 28K 
[   ]11.D.2.4._CollisionOperatorForTheDifferenceDistribution.doc20-Aug-2013 10:24 60K 
[TXT]11.D.2.4._CollisionOperatorForTheDifferenceDistribution.htm20-Aug-2013 10:24 27K 
[   ]11.D.2.5._Exercise11.3.doc20-Aug-2013 10:24 173K 
[TXT]11.D.2.5._Exercise11.3.htm20-Aug-2013 10:24 77K 
[   ]11.D.2._CollisionOperators.doc20-Aug-2013 10:24 50K 
[TXT]11.D.2._CollisionOperators.htm20-Aug-2013 10:24 23K 
[   ]11.D._LinearizedBoltzmannAndLorentzBoltzmannEquations.doc20-Aug-2013 10:24 50K 
[TXT]11.D._LinearizedBoltzmannAndLorentzBoltzmannEquations.htm20-Aug-2013 10:24 22K 
[   ]11.E.1._DerivationOfTheDiffusionEquation.doc20-Aug-2013 10:24 92K 
[TXT]11.E.1._DerivationOfTheDiffusionEquation.htm20-Aug-2013 10:24 40K 
[   ]11.E.2.1._RayleighSchrodingerPerturbationTheory.doc20-Aug-2013 10:24 159K 
[TXT]11.E.2.1._RayleighSchrodingerPerturbationTheory.htm20-Aug-2013 10:24 68K 
[   ]11.E.2.2._Eigenfrequencies.doc20-Aug-2013 10:24 83K 
[TXT]11.E.2.2._Eigenfrequencies.htm20-Aug-2013 10:24 46K 
[   ]11.E.2.3._HydrodynamicEigenfrequency.doc20-Aug-2013 10:24 75K 
[TXT]11.E.2.3._HydrodynamicEigenfrequency.htm20-Aug-2013 10:24 37K 
[   ]11.E.2._EigenfrequenciesOfTheLorentzBoltzmannEquation.doc20-Aug-2013 10:24 50K 
[TXT]11.E.2._EigenfrequenciesOfTheLorentzBoltzmannEquation.htm20-Aug-2013 10:24 23K 
[   ]11.E._CoefficientOfSelfDiffusion.doc20-Aug-2013 10:24 50K 
[TXT]11.E._CoefficientOfSelfDiffusion.htm20-Aug-2013 10:24 22K 
[   ]11.F.1.0._PerParticleQuantities.doc20-Aug-2013 10:24 119K 
[TXT]11.F.1.0._PerParticleQuantities.htm20-Aug-2013 10:24 40K 
[   ]11.F.1.1._ParticleFlux.doc20-Aug-2013 10:24 84K 
[TXT]11.F.1.1._ParticleFlux.htm20-Aug-2013 10:24 37K 
[   ]11.F.1.2._MomentumFlux.doc20-Aug-2013 10:24 62K 
[TXT]11.F.1.2._MomentumFlux.htm20-Aug-2013 10:24 32K 
[   ]11.F.1.3._EnergyFlux.doc20-Aug-2013 10:24 89K 
[TXT]11.F.1.3._EnergyFlux.htm20-Aug-2013 10:24 42K 
[   ]11.F.1.4._PressureTensor.doc20-Aug-2013 10:24 66K 
[TXT]11.F.1.4._PressureTensor.htm20-Aug-2013 10:24 32K 
[   ]11.F.1.5._ThermalConduction.doc20-Aug-2013 10:24 73K 
[TXT]11.F.1.5._ThermalConduction.htm20-Aug-2013 10:24 35K 
[   ]11.F.1.6._Summary.doc20-Aug-2013 10:24 60K 
[TXT]11.F.1.6._Summary.htm20-Aug-2013 10:24 32K 
[   ]11.F.1.7._NormalModes.doc20-Aug-2013 10:24 77K 
[TXT]11.F.1.7._NormalModes.htm20-Aug-2013 10:24 36K 
[   ]11.F.1.8._TransverseModes.doc20-Aug-2013 10:24 50K 
[TXT]11.F.1.8._TransverseModes.htm20-Aug-2013 10:24 25K 
[   ]11.F.1.9._LongitudinalModes.doc20-Aug-2013 10:24 141K 
[TXT]11.F.1.9._LongitudinalModes.htm20-Aug-2013 10:24 56K 
[   ]11.F.1.10._MatrixForm.doc20-Aug-2013 10:24 60K 
[TXT]11.F.1.10._MatrixForm.htm20-Aug-2013 10:24 41K 
[   ]11.F.1.11._ApproximateSolutions.doc20-Aug-2013 10:24 121K 
[TXT]11.F.1.11._ApproximateSolutions.htm20-Aug-2013 10:24 43K 
[   ]11.F.1._DerivationOfTheHydrodynamicEquations.doc20-Aug-2013 10:24 53K 
[TXT]11.F.1._DerivationOfTheHydrodynamicEquations.htm20-Aug-2013 10:24 26K 
[   ]11.F.2.1._TheProblem.doc20-Aug-2013 10:24 50K 
[TXT]11.F.2.1._TheProblem.htm20-Aug-2013 10:24 26K 
[   ]11.F.2.2._UnperturbedCase.doc20-Aug-2013 10:24 150K 
[TXT]11.F.2.2._UnperturbedCase.htm20-Aug-2013 10:24 58K 
[   ]11.F.2.3._DegeneratePerturbationTheory.doc20-Aug-2013 10:24 75K 
[TXT]11.F.2.3._DegeneratePerturbationTheory.htm20-Aug-2013 10:24 30K 
[   ]11.F.2.4._MatrixElements.doc20-Aug-2013 10:24 106K 
[TXT]11.F.2.4._MatrixElements.htm20-Aug-2013 10:24 48K 
[   ]11.F.2.5._1stOrderEigenvalues.doc20-Aug-2013 10:24 67K 
[TXT]11.F.2.5._1stOrderEigenvalues.htm20-Aug-2013 10:24 33K 
[   ]11.F.2.6._0thOrderEigenfunctions.doc20-Aug-2013 10:24 143K 
[TXT]11.F.2.6._0thOrderEigenfunctions.htm20-Aug-2013 10:24 66K 
[   ]11.F.2.7._2ndOrderEigenvalues.doc20-Aug-2013 10:24 59K 
[TXT]11.F.2.7._2ndOrderEigenvalues.htm20-Aug-2013 10:24 33K 
[   ]11.F.2._EigenfrequenciesOfTheBoltzmannEquation.doc20-Aug-2013 10:24 52K 
[TXT]11.F.2._EigenfrequenciesOfTheBoltzmannEquation.htm20-Aug-2013 10:24 24K 
[   ]11.F.3._ShearViscosityAndThermalConductivity.doc20-Aug-2013 10:24 96K 
[TXT]11.F.3._ShearViscosityAndThermalConductivity.htm20-Aug-2013 10:24 48K 
[   ]11.F._CoefficientsOfViscosityAndThermalConductivity.doc20-Aug-2013 10:24 50K 
[TXT]11.F._CoefficientsOfViscosityAndThermalConductivity.htm20-Aug-2013 10:24 23K 
[   ]11.G.0._Preface.doc20-Aug-2013 10:24 66K 
[TXT]11.G.0._Preface.htm20-Aug-2013 10:24 34K 
[   ]11.G.1.1._Proof.doc20-Aug-2013 10:24 100K 
[TXT]11.G.1.1._Proof.htm20-Aug-2013 10:24 48K 
[   ]11.G.1._SoninePolynomials.doc20-Aug-2013 10:24 67K 
[TXT]11.G.1._SoninePolynomials.htm20-Aug-2013 10:24 31K 
[   ]11.G.2.1._ExpansionBySoninePolynomials.doc20-Aug-2013 10:24 95K 
[TXT]11.G.2.1._ExpansionBySoninePolynomials.htm20-Aug-2013 10:24 40K 
[   ]11.G.2.2._CollisionOperator.doc20-Aug-2013 10:24 53K 
[TXT]11.G.2.2._CollisionOperator.htm20-Aug-2013 10:24 30K 
[   ]11.G.2.3._TruncatedSolution.doc20-Aug-2013 10:24 91K 
[TXT]11.G.2.3._TruncatedSolution.htm20-Aug-2013 10:24 38K 
[   ]11.G.2._DiffusionCoefficient.doc20-Aug-2013 10:24 50K 
[TXT]11.G.2._DiffusionCoefficient.htm20-Aug-2013 10:24 22K 
[   ]11.G.3.1._ExpansionBySoninePolynomials.doc20-Aug-2013 10:24 69K 
[TXT]11.G.3.1._ExpansionBySoninePolynomials.htm20-Aug-2013 10:24 39K 
[   ]11.G.3.2._CollisionOperator.doc20-Aug-2013 10:24 79K 
[TXT]11.G.3.2._CollisionOperator.htm20-Aug-2013 10:24 39K 
[   ]11.G.3.3._Exercise11.4.doc20-Aug-2013 10:24 219K 
[TXT]11.G.3.3._Exercise11.4.htm20-Aug-2013 10:24 101K 
[   ]11.G.3._ThermalConductivity.doc20-Aug-2013 10:24 50K 
[TXT]11.G.3._ThermalConductivity.htm20-Aug-2013 10:24 22K 
[   ]11.G.4.1._ExpansionBySoninePolynomials.doc20-Aug-2013 10:24 70K 
[TXT]11.G.4.1._ExpansionBySoninePolynomials.htm20-Aug-2013 10:24 38K 
[   ]11.G.4.2._CollisionOperator.doc20-Aug-2013 10:24 73K 
[TXT]11.G.4.2._CollisionOperator.htm20-Aug-2013 10:24 36K 
[   ]11.G.4._ShearViscosity.doc20-Aug-2013 10:24 50K 
[TXT]11.G.4._ShearViscosity.htm20-Aug-2013 10:24 22K 
[   ]11.G._ComputationOfTransportCoefficients.doc20-Aug-2013 10:24 51K 
[TXT]11.G._ComputationOfTransportCoefficients.htm20-Aug-2013 10:24 23K 
[   ]11._TransportTheory.doc20-Aug-2013 10:24 50K 
[TXT]11._TransportTheory.htm20-Aug-2013 10:24 24K 
[   ]Chap11.chm20-Aug-2013 10:24 330K 
[   ]Chap11.hhp20-Aug-2013 10:24 3.2K 
[TXT]Chap11.htm20-Aug-2013 10:24 278  
[TXT]Log1.log20-Aug-2013 10:24 16K 
[TXT]TOC11.hhc20-Aug-2013 10:24 15K 
[TXT]TOC11.htm20-Aug-2013 10:24 577  
[TXT]mathpage.js20-Aug-2013 10:24 12K 
[TXT]right.htm20-Aug-2013 10:24 849